| time (UTC) | temp F | wind direction | speed knots | gust knots | rain 1hr in | rain 24hr in | rain mn in | humidity % | barometer mb |
| 20260504231530 | 71 | 356 | 0.0 | 1.7 | 0.00 | 0.00 | 0.00 | 48 | 1009.1 |
| 20260504230008 | 72 | 321 | 0.0 | 1.7 | 0.00 | 0.00 | 0.00 | 47 | 1009.0 |
| 20260504224552 | 73 | 304 | 0.0 | 2.6 | 0.00 | 0.00 | 0.00 | 46 | 1009.0 |
| 20260504223033 | 72 | 352 | 0.0 | 2.6 | 0.00 | 0.00 | 0.00 | 46 | 1009.0 |
| 20260504221505 | 73 | 328 | 0.0 | 0.9 | 0.00 | 0.00 | 0.00 | 47 | 1009.1 |
| 20260504220048 | 73 | 346 | 0.0 | 1.7 | 0.00 | 0.00 | 0.00 | 45 | 1009.2 |
| 20260504214530 | 74 | 257 | 0.0 | 0.9 | 0.00 | 0.00 | 0.00 | 45 | 1009.1 |
| 20260504213012 | 74 | 326 | 0.0 | 3.5 | 0.00 | 0.00 | 0.00 | 44 | 1009.0 |
| 20260504211549 | 74 | 249 | 0.0 | 1.7 | 0.00 | 0.00 | 0.00 | 44 | 1009.0 |
| 20260504210022 | 74 | 238 | 0.0 | 4.3 | 0.00 | 0.00 | 0.00 | 43 | 1009.2 |
| 20260504204504 | 74 | 319 | 0.9 | 5.2 | 0.00 | 0.00 | 0.00 | 42 | 1009.2 |
| 20260504203050 | 74 | 351 | 0.0 | 1.7 | 0.00 | 0.00 | 0.00 | 42 | 1009.2 |
| 20260504201518 | 75 | 233 | 0.0 | 1.7 | 0.00 | 0.00 | 0.00 | 42 | 1009.4 |
| 20260504194600 | 74 | 288 | 0.0 | 2.6 | 0.00 | 0.00 | 0.00 | 42 | 1009.8 |
| 20260504193022 | 73 | 240 | 0.0 | 2.6 | 0.00 | 0.00 | 0.00 | 44 | 1010.0 |
| 20260504191554 | 74 | 328 | 0.9 | 2.6 | 0.00 | 0.00 | 0.00 | 42 | 1010.0 |
| 20260504190044 | 75 | 237 | 0.0 | 2.6 | 0.00 | 0.00 | 0.00 | 40 | 1010.2 |
| 20260504184518 | 76 | 335 | 0.9 | 2.6 | 0.00 | 0.00 | 0.00 | 38 | 1010.4 |
| 20260504183102 | 77 | 201 | 0.0 | 1.7 | 0.00 | 0.00 | 0.00 | 38 | 1010.6 |
| 20260504181541 | 78 | 352 | 0.0 | 3.5 | 0.00 | 0.00 | 0.00 | 37 | 1011.0 |
| 20260504180018 | 78 | 189 | 0.0 | 3.5 | 0.00 | 0.00 | 0.00 | 38 | 1011.3 |
| 20260504174556 | 78 | 329 | 0.9 | 2.6 | 0.00 | 0.00 | 0.00 | 37 | 1011.4 |
| 20260504173041 | 77 | 250 | 0.0 | 2.6 | 0.00 | 0.00 | 0.00 | 37 | 1011.5 |
| 20260504171508 | 76 | 292 | 0.0 | 1.7 | 0.00 | 0.00 | 0.00 | 37 | 1011.9 |
| 20260504120108 | 50 | 170 | 0.0 | 0.0 | 0.00 | 0.00 | 0.00 | 78 | 1014.3 |
| 20260504081512 | 46 | 170 | 0.0 | 0.0 | 0.00 | 0.00 | 0.00 | 79 | 1014.8 |
| 20260504044516 | 46 | 170 | 0.0 | 0.0 | 0.00 | 0.00 | 0.00 | 77 | 1014.6 |
| 20260504043102 | 46 | 170 | 0.0 | 0.0 | 0.00 | 0.00 | 0.00 | 78 | 1014.6 |
| 20260504041535 | 46 | 170 | 0.0 | 0.0 | 0.00 | 0.00 | 0.00 | 78 | 1014.5 |
| 20260504040011 | 45 | 170 | 0.0 | 0.0 | 0.00 | 0.00 | 0.00 | 78 | 1014.6 |
| 20260504034553 | 45 | 170 | 0.0 | 0.0 | 0.00 | 0.00 | 0.00 | 78 | 1014.6 |
| 20260504033035 | 44 | 170 | 0.0 | 0.0 | 0.00 | 0.00 | 0.00 | 78 | 1014.5 |
| 20260504031504 | 44 | 170 | 0.0 | 0.0 | 0.00 | 0.00 | 0.00 | 77 | 1014.6 |
| 20260504030049 | 45 | 170 | 0.0 | 0.0 | 0.00 | 0.00 | 0.00 | 76 | 1014.6 |
| 20260504024538 | 45 | 170 | 0.0 | 0.0 | 0.00 | 0.00 | 0.00 | 75 | 1014.5 |
| 20260504023012 | 46 | 170 | 0.0 | 0.0 | 0.00 | 0.00 | 0.00 | 74 | 1014.6 |
| 20260504021536 | 46 | 170 | 0.0 | 0.0 | 0.00 | 0.00 | 0.00 | 74 | 1014.6 |
| 20260504020018 | 47 | 170 | 0.0 | 0.0 | 0.00 | 0.00 | 0.00 | 72 | 1014.3 |
| 20260504014600 | 48 | 170 | 0.0 | 0.0 | 0.00 | 0.00 | 0.00 | 71 | 1014.4 |
| 20260504013037 | 48 | 170 | 0.0 | 0.0 | 0.00 | 0.00 | 0.00 | 71 | 1014.3 |
| 20260504011507 | 49 | 170 | 0.0 | 0.0 | 0.00 | 0.00 | 0.00 | 70 | 1014.1 |
| 20260504010057 | 50 | 170 | 0.0 | 0.0 | 0.00 | 0.00 | 0.00 | 69 | 1014.0 |
| 20260504004532 | 51 | 170 | 0.0 | 0.0 | 0.00 | 0.00 | 0.00 | 65 | 1014.0 |
| 20260504003013 | 52 | 170 | 0.0 | 0.0 | 0.00 | 0.00 | 0.00 | 64 | 1013.8 |
| 20260504001608 | 53 | 170 | 0.0 | 0.0 | 0.00 | 0.00 | 0.00 | 60 | 1013.7 |
| 20260504000035 | 54 | 170 | 0.0 | 0.0 | 0.00 | 0.00 | 0.00 | 59 | 1013.6 |
| 20260503234515 | 56 | 170 | 0.0 | 0.0 | 0.00 | 0.00 | 0.00 | 56 | 1013.4 |
| 20260503233058 | 56 | 170 | 0.0 | 0.0 | 0.00 | 0.00 | 0.00 | 49 | 1013.3 |